Torna al catalogo

STARLINK-5614

AttivoComunicazioniVLEO
NORAD 55756·PAYLOAD·🇺🇸 United States

Lanciato Mar 3, 2023 da Vandenberg Space Force Base

Loading…

Prossimi Passaggi (prossime 24 ore)

TLE

AggiornatoSource: CelesTrak SupGP

Epoca: Sep 14, 2026, 20:50 UTC

1 55756C 23028R   26257.86854167 -.00031875  00000+0 -26715-2 0  2575
2 55756  70.0002 127.2837 0002657 270.7248  28.4974 14.98344115    14

Traccia STARLINK-5614 in tempo reale con AllMySat

Download on the App Store